Regional Weather Roundup
Issued by NWS Wilmington, NC

Home | Current Version | Previous Version | Text Only | Print | Product List | Glossary On
Versions: 1 2 3 4 5 6 7 8 9 10 11 12 13 14 15 16 17 18 19 20 21 22 23 24 25 26 27 28 29 30 31 32 33 34 35 36 37 38 39 40 41 42 43 44 45 46 47 48 49 50
793
ASUS42 KILM 062313
RWRILM
RWRILM
REGIONAL HOURLY WEATHER ROUNDUP
NATIONAL WEATHER SERVICE WILMINGTON NC
600 PM EST SAT FEB 06 2016

NOTE: "FAIR" INDICATES FEW OR NO CLOUDS BELOW 12,000 FEET WITH NO
SIGNIFICANT WEATHER AND/OR OBSTRUCTIONS TO VISIBILITY.

...............WFO WILMINGTON COUNTY WARNING AREA...............

......COASTAL NC AND SC COUNTIES......

CITY           SKY/WX    TMP DP  RH WIND       PRES   REMARKS
WILMINGTON     LGT RAIN  45  36  70 E5        30.29S
N MYRTLE BEACH CLOUDY    48  28  46 NE9       30.26F
MYRTLE BEACH   CLOUDY    48  28  46 NE14      30.28F

......INLAND NC AND SC COUNTIES.......

CITY           SKY/WX    TMP DP  RH WIND       PRES   REMARKS
LUMBERTON      CLOUDY    48  24  39 NE7       30.28F
ELIZABETHTOWN  CLOUDY    47  24  39 NE3       30.30S
WHITEVILLE     CLOUDY    47  24  39 NE5       30.28S
FLORENCE       CLOUDY    47  26  44 NE6       30.27F
DARLINGTON     CLOUDY    48  27  43 E3        30.29S
KINGSTREE      LGT RAIN  46  25  42 N3        30.26F
HARTSVILLE     CLOUDY    46  27  46 CALM      30.28R
BENNETTSVILLE  CLOUDY    50  30  46 NE6       30.28S
CONWAY         CLOUDY    46  30  53 N7        30.26F HAZE
GEORGETOWN     LGT RAIN  45  37  76 NE7       30.25F
MARION         CLOUDY    46  25  42 N7        30.28R

....................REST OF NORTH CAROLINA......................

.........EASTERN NC.........

CITY           SKY/WX    TMP DP  RH WIND       PRES   REMARKS
CAPE HATTERAS  CLOUDY    45  35  68 NE10G17   30.29F
JACKSONVILLE   CLOUDY    45  25  45 NW3       30.32R
MOREHEAD CITY  CLOUDY    44  35  70 NE9       30.31R
KENANSVILLE      N/A     44  25  46 CALM      30.33S
NEW BERN       CLOUDY    45  27  49 NE9       30.33R
ELIZABETH CITY CLEAR     39  30  70 NE10      30.35R WCI  32

.........CENTRAL NC.........

CITY           SKY/WX    TMP DP  RH WIND       PRES   REMARKS
RALEIGH DURHAM PTCLDY    42  20  41 SE3       30.31F
ROCKY MOUNT    CLEAR     40  24  53 NE3       30.33S
ROANOKE RAPIDS NOT AVBL
FAYETTEVILLE   CLOUDY    45  25  45 NE6       30.29S
HOFFMAN        CLOUDY    46  23  39 NE3       30.29S

.........WESTERN NC.........

CITY           SKY/WX    TMP DP  RH WIND       PRES   REMARKS
CHARLOTTE      CLOUDY    44  19  36 N5        30.28S
GREENSBORO     MOCLDY    44  10  25 CALM      30.27S
HICKORY        NOT AVBL
BOONE          NOT AVBL
ASHEVILLE      NOT AVBL

.....................REST OF SOUTH CAROLINA.....................

.........EASTERN SC.........

CITY           SKY/WX    TMP DP  RH WIND       PRES   REMARKS
CHARLESTON     LGT RAIN  47  34  60 N13       30.25R
BEAUFORT MCAS  CLOUDY    47  35  63 N14       30.23F
HILTON HEAD    CLOUDY    48  37  66 N12G20    30.21F

.........CENTRAL SC.........

CITY           SKY/WX    TMP DP  RH WIND       PRES   REMARKS
COLUMBIA       CLOUDY    50  24  36 E8        30.26F
ORANGEBURG     LGT RAIN  43  33  68 NE3       30.27S
SUMTER SHAW    CLOUDY    46  30  53 E5        30.25F

.........WESTERN SC.........

CITY           SKY/WX    TMP DP  RH WIND       PRES   REMARKS
GREENVILLE     NOT AVBL
ROCK HILL      CLOUDY    46  17  31 VRB5      30.28R
ANDERSON       CLOUDY    48  17  29 E8        30.25F
CLEMSON        NOT AVBL
GREENWOOD      CLOUDY    48  20  32 N6        30.28R


...................COASTAL AND OFFSHORE REPORTS..................

................LOCAL PIERS AND NC RESERVE................


STATION/POSITION TIME  SKY/WX   TEMP    WIND        PRES    VSBY
                                AIR SEA DIR/SP/G
                 (UTC)          (F)     (DEG/KT/KT) (MB)    (MI)
JOHNY MRCER PIER 2200            48 54              1024.6R
NC RESRV MASNBRO NOT AVBL
OCEAN CREST PIER NOT AVBL
SPRINGMAID  PIER 2200            48 52              1024.6R


................COASTAL AND OFFSHORE BUOYS................


STATION/POSITION TIME  SKY/WX   TEMP    WIND        PRES    VSBY
                                AIR SEA DIR/SP/G
                 (UTC)          (F)     (DEG/KT/KT) (MB)    (MI)
DIMNDSHOAL 41025 2250            52 71   20/ 17/ 21 1024.7F
WVE H/P(F/S)=  6/10 SWL H/P/D(F/S/D)=  5/ 70/10

CAPE LOOKOUT     NOT AVBL
ONSLOW BAY 41036 NOT AVBL
ONSLOW BAY 41064 2208            50 64              1023.5F
ONSLOW BAY 41159 2225               65                N/A
WVE H/P(F/S)=  5/12 SWL H/P/D(F/S/D)=  2/ 80/12

5SE WRITBC 41038 2208            49 53   60/ 14/ 19 1025.6R
MASNBO INL 41110 2206               53                N/A
WVE H/P(F/S)=  4/ 6 SWL H/P/D(F/S/D)=  2/100/11

WILM HARBR 41108 2226               56                N/A
WVE H/P(F/S)=  4/ 5 SWL H/P/D(F/S/D)=  2/110/12

27SE WRITB 41037 2208            52 69  360/ 17/ 23 1024.3R
FRYING PAN 41013 2200            54 68   10/ 19/ 25 1024.0R
SUNST NRSH 41024 NOT AVBL
CAPRS NRSH 41029 2208            48      50/ 19/ 25 1023.4F
EDISTO     41004 2250            55 64   30/ 23/ 27 1021.3F
WVE H/P(F/S)=  7/ 7 SWL H/P/D(F/S/D)=  3/10



..........OFFSHORE BUOYS BEYOND 100 NM OFFSHORE...........
.....IN A TRIANGLE---HAT TO BERMUDA TO BAHAMAS TO HAT.....


STATION/POSITION TIME  SKY/WX   TEMP    WIND        PRES    VSBY
                                AIR SEA DIR/SP/G
                 (UTC)          (F)     (DEG/KT/KT) (MB)    (MI)
150E HAT   41001 2200            59 73   40/ 10/ 16 1024.5F
W BERMUDA  41048 2250            66 70   70/ 14/ 16 1021.7F
WVE H/P(F/S)= 11/11 SWL H/P/D(F/S/D)= 10/350/11

ATLANTIC S 41049 2250            74 73  130/  6/  8 1020.9R
WVE H/P(F/S)=  7/10 SWL H/P/D(F/S/D)=  7/ 80/10

E BAHAMAS  41046 2250            78 80  120/ 10/ 12 1017.9R
WVE H/P(F/S)=  7/10 SWL H/P/D(F/S/D)=  7/ 70/10

NE BAHAMAS 41047 2250            74 76  110/ 12/ 14 1018.6R
WVE H/P(F/S)= 10/10 SWL H/P/D(F/S/D)= 10/ 10/10

120E CANVRL41010 2220            69 75              1018.1F

END




USA.gov is the U.S. government's official web portal to all federal, state and local government web resources and services.